Preview of NWS' New Version of Forecast
This preview is not operational and should not be used for support decisions.
Latest weather observations around

Emporia, Emporia Municipal Airport (KEMP)

Using International System of Units (Switch to English Units)
Date/ Time (CDT) Wind (kph) Vis. (km) Weather Sky Cond. Temp (°C) Rel. Humidity Wind Chill (°C) Heat Index (°C) Pressure Precip. (cm)
Air Dwpt 6 hour Altimeter (hPa) Sea level (hPa) 1 hr 3 hr 6 hr
Max Min
Aug 21 05:53 NW 9 16.09 Mostly Clear FEW110 24 23     91%   25 1015.6 1014.3 0    
Aug 21 05:49 9 16.09 Mostly Clear FEW110 24 23     94%   25 1015.6   0    
Aug 21 05:23 Calm 16.09 Partly Cloudy SCT085 SCT110 24 23     96%   25 1015.2   0    
Aug 21 04:53 5 14.48 Thunderstorms and Rain OVC085 24 23     94%   25 1014.9 1013.6 0    
Aug 21 04:42 NNW 5 16.09 Thunderstorms and Rain BKN090 24 24     97%   25 1014.9   0    
Aug 21 04:00 SW 9 16.09 Cloudy FEW039 FEW090 OVC110 25 23     90%   26 1014.9   0    
Aug 21 03:53 SW 11 16.09 Light Rain SCT039 SCT090 BKN110 26 23     85%   26 1014.2 1012.9 0 0  
Aug 21 02:53 NNW 15 16.09 Thunderstorms FEW043 OVC090 26 22     79%   28 1014.9 1013.4 0    
Aug 21 02:30 NNE 13 16.09 Thunderstorms and Rain BKN090 OVC110 28 23     77%   31 1014.9   0    
Aug 21 02:21 9 16.09 Light Rain BKN095 OVC110 27 24     85%   29 1014.9   0    
Aug 21 02:06 NNW 13 16.09 Thunderstorms and Rain OVC110 27 24     87%   30 1015.2   0    
Aug 21 01:53   16.09 Cloudy OVC110 27 24     87%   30 1015.2 1013.7      
Aug 21 01:09 S 21 16.09 Mostly Cloudy SCT100 BKN120 27 24     87%   30 1014.6        
Aug 21 00:53 SSE 13 16.09 Mostly Cloudy SCT100 BKN120 27 25     90%   30 1015.2 1013.9      
Aug 20 23:53 S 17 16.09 Clear CLR 27 24     85%   31 1015.2 1013.7      
Aug 20 22:53 S 22 16.09 Clear CLR 28 24     82%   32 1014.6 1013.3      
Aug 20 21:53 S 17 16.09 Clear CLR 28 24     79%   33 1014.9 1013.5      
Aug 20 20:53 S 21 16.09 Clear CLR 29 24     75%   35 1014.2 1012.8      
Aug 20 19:53 SSE 17 16.09 Clear CLR 31 24     70%   36 1013.9 1012.4      
Aug 20 18:53 SSE 21 16.09 Clear CLR 32 25     66%   39 1013.6 1012.2      
Aug 20 17:53 SSE 21 16.09 Clear CLR 34 26     62%   43 1013.9 1012.4      
Aug 20 16:53 SSE 21 16.09 Clear CLR 35 25     56%   43 1014.2 1012.8      
Aug 20 15:53 SSE 21 16.09 Clear CLR 35 25     56%   43 1014.6 1013.2      
Aug 20 14:53 SE 17 16.09 Clear CLR 36 25     54%   44 1014.9 1013.5      
Aug 20 13:53 S 22 16.09 Clear CLR 36 24     53%   43 1014.9 1013.4      
Aug 20 12:53 SSW 22 16.09 Clear CLR 34 24     56%   42 1014.9 1013.3      
Aug 20 11:53 SW 21 16.09 Clear CLR 34 23     54%   40 1015.2 1013.9      
Aug 20 10:53 SW 17 16.09 Clear CLR 32 24     62%   38 1015.6 1014.2      
Aug 20 09:53 SSW 22 16.09 Clear CLR 31 23     61%   35 1015.6 1014.2      
Aug 20 08:53 SSW 21 16.09 Clear CLR 29 23     70%   32 1015.6 1014.2      
Aug 20 07:53 S 13 16.09 Clear CLR 25 22     84%   26 1015.6 1014.5      
Aug 20 06:53 S 8 16.09 Clear CLR 24 22     90%   25 1014.9 1013.8      
Aug 20 05:53 S 18 16.09 Clear CLR 24 23     91%   25 1014.2 1012.7      
Aug 20 04:53 S 17 16.09 Clear CLR 25 24     94%   26 1014.6 1013.1      
Aug 20 03:53 S 18 16.09 Clear CLR 26 24     90%   27 1014.6 1013.3      
Aug 20 02:53 S 22 16.09 Clear CLR 26 24     90%   28 1014.9 1013.5      
Aug 20 01:53 S 21 16.09 Clear CLR 27 24     87%   30 1014.9 1013.5      
Aug 20 00:53 S 21 16.09 Clear   27 25     90%   30 1014.9 1013.5      
Aug 19 23:53 S 21 16.09 Clear CLR 27 25     90%   30 1014.6 1013.1      
Aug 19 22:53 SSE 17 16.09 Clear CLR 27 26     91%   31 1014.6 1013.1      
Aug 19 21:53 SSE 17 16.09 Clear CLR 28 26     90%   33 1014.2 1012.9      
Aug 19 20:53 SE 11 16.09 Clear CLR 28 26     88%   34 1013.6 1012.4      
Aug 19 19:53 SSE 13 16.09 Clear CLR 30 26     80%   38   1012      
Aug 19 18:53 SSE 13 16.09 Clear CLR 32 26     70%   41 1013.2 1011.9      
Aug 19 17:53 SSE 26 16.09 Clear CLR 33 26     66%   43   1011.7      
Aug 19 16:53 SSE 18 16.09 Clear CLR 34 26     64%   44 1013.6 1012.1      
Aug 19 15:53 SSE 18 16.09 Clear CLR 34 26     62%   43 1013.6 1012.3      
Aug 19 14:53 SSE 18 16.09 Clear CLR 33 26     64%   42 1014.2 1013      
Aug 19 13:53 SSE 15 16.09 Clear CLR 33 24     61%   40 1014.9 1013.6      
Aug 19 12:53 5 16.09 Clear CLR 33 25     64%   40 1015.6 1014.1      
Aug 19 11:53 SSE 13 16.09 Clear CLR 31 24     68%   37 1015.6 1014.4      
Aug 19 10:53 S 15 16.09 Clear CLR 30 24     72%   36 1015.6 1014.6      
Aug 19 09:53 S 17 16.09 Clear CLR 28 24     77%   32 1015.6 1014.3      
Aug 19 08:53 S 21 16.09 Clear CLR 26 24     88%   28 1015.2 1014      
Aug 19 07:53 SSE 9 16.09 Clear CLR 24 23     96%   25 1015.2 1014      
Aug 19 06:53 SE 11 16.09 Clear CLR 23 23     100%   24 1014.9 1013.8      
Aug 19 05:53 ESE 8 16.09 Cloudy BKN060 OVC070 23 23     100%   24 1014.2 1013.2      
Aug 19 04:53 ESE 8 16.09 Mostly Clear FEW055 23 23     100%   24 1013.9 1012.7      
Aug 19 03:53 SSE 9 16.09 Partly Cloudy FEW040 SCT055 23 23     100%   24 1013.9 1012.5      
Aug 19 02:53 S 11 16.09 Mostly Cloudy SCT050 BKN060 23 23     100%   24 1013.9 1012.6      
Aug 19 01:53 S 8 16.09 Mostly Cloudy BKN055 23 23     97%   24 1013.9 1012.7      
Aug 19 00:53 S 11 16.09 Clear CLR 23 23     97%   24 1013.6 1012.5      
Aug 18 23:53 S 11 16.09 Clear CLR 23 22     96%   24 1013.6 1012.5      
Aug 18 22:53 S 9 16.09 Clear CLR 23 23     97%   24 1013.6 1012.3      
Aug 18 21:53 SSE 11 16.09 Clear CLR 25 23     88%   26 1012.9 1011.9      
Aug 18 20:53 S 8 16.09 Clear CLR 26 23     82%   28 1012.5 1011.5      
Aug 18 19:53 SSE 8 16.09 Clear CLR 28 23     74%   32 1011.9 1010.9      
Aug 18 18:53 SSW 8 16.09 Clear CLR 31 22     59%   34 1011.5 1010.3      
Aug 18 17:53 SSW 5 16.09 Clear CLR 31 21     54%   34 1011.5 1010.2      
Aug 18 16:53 5 16.09 Clear CLR 32 21     52%   34 1011.5 1010.1      
Aug 18 15:53 SSW 9 16.09 Clear CLR 32 21     52%   34 1011.5 1010.4      
Aug 18 14:53 SSW 13 16.09 Clear CLR 32 21     52%   34 1012.2 1010.9      
Aug 18 13:53 S 8 16.09 Clear CLR 30 19     53%   32   1011.3      
Aug 18 12:53 Calm 16.09 Clear CLR 29 20     59%   31 1013.2 1011.9     0
Aug 18 11:53 SW 8 16.09 Clear CLR 28 20     63%   29 1012.9 1011.6      
Aug 18 10:53 S 22 16.09 Clear CLR 28 19     59%   30 1010.8 1009.6      
Aug 18 09:53 S 13 16.09 Clear CLR 26 18     62%   26 1009.2 1007.9   0  
Aug 18 08:53 S 17 16.09 Clear CLR 23 17     68%   23 1008.1   0    
Aug 18 08:35 S 22 16.09 Mostly Clear FEW110 22 16     68%   22 1008.5   0    
Notice The following observation data may not be complete
Aug 18 08:20   16.09 Mostly Cloudy FEW065 FEW090 BKN110   15      %     1008.5   0    
Aug 18 07:53 SE 11 16.09 Mostly Cloudy FEW095 BKN120 20 18     90%     1010.8 1009.8 0    
Aug 18 06:53 W 13 16.09 Light Rain BKN110 22 17     73%   22 1012.5   0   2
May 15 08:14 Calm 16.09 Cloudy FEW017 OVC036 18 17     93%     1015.9        
May 15 05:53 W 5 16.09 Mostly Cloudy BKN046 17 16     96%     1013.9 1013.4      
May 15 01:53 Calm 16.09 Light Rain SCT050 SCT070 BKN095 18 16     90%     1013.9 1012.9 0    
May 14 18:32   2.82 Rain and Fog/Mist FEW050 BKN060 OVC090 21 18     87%     1009.8   0    
May 13 13:53 S 30 16.09 Clear CLR 31 21     55%   33 1012.9 1011.7      
May 13 06:53 S 22 16.09 Clear CLR 19 17     87%     1013.9 1012.8      
May 12 13:53 S 30 16.09 Cloudy OVC048 28 18     56%   29 1010.8 1009.7      
May 12 02:53 S 28 16.09 Clear CLR 22 16     68%   22 1009.2 1008.1      
Jun 12 07:53   16.09 Clear CLR 22 19     84%   23 1011.5 1010.3      
Jun 12 01:53 S 26 16.09 Clear CLR 23 19     79%   23 1010.8 1009.5      
Jun 11 11:53   16.09 Clear CLR 29 19     57%   30 1009.5 1008.2      
Jun 10 23:53 SSE 28 16.09 Clear CLR 23 19     79%   24 1008.8 1007.7      
Jun 10 21:53 SSE 28 16.09 Clear   25 21     77%   26 1007.8 1006.9      
Jun 10 12:53 S 35 16.09 Mostly Clear and Windy FEW028 28 21     65%   30 1008.1 1007.1      
Jun 10 09:20 S 35 16.09 Partly Cloudy and Windy SCT018 23 18     73%   23 1009.2        
Jun 10 07:53 S 33 16.09 Mostly Cloudy and Windy BKN022 20 17     81%     1009.5 1008.6      
Jun 08 21:53 S 11 16.09 Clear CLR 18 13     70%     1012.9 1012.3      
Jun 08 18:53 SSE 9 16.09 Clear CLR 26 11     39%   25 1013.2 1012.5      
Jun 08 09:53 S 9 16.09 Clear CLR 23 10     44%   22 1018.3 1017.6      
Jun 08 07:53 Calm 16.09 Clear CLR 16 13     86%     1018.3 1017.7      
Jun 06 02:53 E 9 16.09 Clear CLR 20 17     81%     1013.6 1012.3